Вернуться в каталог

TIANYAN-26

АктивенВоенныеSSO
NORAD 65263·PAYLOAD·🇨🇳 China
Это название спутника еще не подтверждено официальными источниками.

Запущен Aug 19, 2025 с Jiuquan Satellite Launch Center

Loading…

Ближайшие Пролёты (ближайшие 24 часа)

TLE

СвежийSource: Space-Track

Эпоха: Sep 14, 2026, 14:51 UTC

1 65263U 25180E   26257.61921801  .00002769  00000-0  14622-3 0  9990
2 65263  97.4785  23.3884 0001620  88.7623 271.3796 15.16349909 59270

Отслеживайте TIANYAN-26 в реальном времени с AllMySat

Download on the App Store